Weather History for Brindisi, Italy

Change the Weather History Date:

Monday, January 13, 2014

  Actual Average Record
Temperature  
Mean Temperature 56 °F -  
Max Temperature 60 °F 55 °F 60 °F (1999)
Min Temperature 51 °F 43 °F 39 °F (2012)
Degree Days  
Heating Degree Days 10    
Growing Degree Days 6 (Base 50)    
Moisture  
Dew Point 54 °F    
Average Humidity 96    
Maximum Humidity 100    
Minimum Humidity 88    
Precipitation  
Precipitation 0.00 in 0.08 in - ()
Sea Level Pressure  
Sea Level Pressure 30.12 in    
Wind  
Wind Speed 6 mph ()    
Max Wind Speed 10 mph    
Max Gust Speed -    
Visibility 4.1 miles    
Events      
Averages and records for this station are not official NWS values.
T = Trace of Precipitation, MM = Missing Value Source: Averaged Metar Reports

Daily Weather History Graph

Daily Weather History Graph

Search for Another Location

Airport:

Trip Planner

Search our weather history database for the weather conditions in past years. The results will help you decide how hot, cold, wet, or windy it might be!

Date:

Astronomy

Jan. 13, 2014 Rise Set
Actual Time 7:10 AM CET 4:43 PM CET
Civil Twilight 6:40 AM CET 5:13 PM CET
Nautical Twilight 6:06 AM CET 5:47 PM CET
Astronomical Twilight 5:33 AM CET 6:20 PM CET
Moon 2:43 PM CET (1/13) 4:44 AM CET (1/13)
Length of Visible Light 10h 32m
Length of Day
9h 32m
Waxing Gibbous, 93% of the Moon is Illuminated
Jan 13
Waxing Gibbous
Jan 16
Full
Jan 24
Last Quarter
Jan 30
New
Feb 6
First Quarter

Hourly Weather History & Observations

Time (CET) Temp. Dew Point Humidity Pressure Visibility Wind Dir Wind Speed Gust Speed Precip Events Conditions
12:15 AM 53.6 °F 53.6 °F 100% 30.15 in 3.1 mi NW 8.1 mph - N/A   Scattered Clouds
12:45 AM 53.6 °F 53.6 °F 100% 30.15 in 3.1 mi NW 9.2 mph - N/A   Scattered Clouds
1:00 AM 54 °F 53 °F 95% 30.17 in 3 mi NW 9.2 mph - -   Mist
1:15 AM 53.6 °F 53.6 °F 100% 30.15 in 3.1 mi WNW 6.9 mph - N/A   Scattered Clouds
1:45 AM 53.6 °F 53.6 °F 100% 30.15 in 3.1 mi WNW 6.9 mph - N/A   Scattered Clouds
2:15 AM 53.6 °F 53.6 °F 100% 30.15 in 3.1 mi WNW 8.1 mph - N/A   Scattered Clouds
2:45 AM 53.6 °F 53.6 °F 100% 30.15 in 3.1 mi WNW 8.1 mph - N/A   Scattered Clouds
3:15 AM 51.8 °F 51.8 °F 100% 30.15 in 3.1 mi NW 10.4 mph - N/A   Scattered Clouds
3:45 AM 51.8 °F 51.8 °F 100% 30.15 in 3.1 mi NW 10.4 mph - N/A   Mostly Cloudy
4:00 AM 52 °F 51 °F 96% 30.16 in 3 mi NW 10.4 mph - -   Mist
4:15 AM 51.8 °F 51.8 °F 100% 30.15 in 3.7 mi NW 10.4 mph - N/A   Mostly Cloudy
4:45 AM 53.6 °F 53.6 °F 100% 30.15 in 3.7 mi NW 9.2 mph - N/A   Mostly Cloudy
5:15 AM 51.8 °F 51.8 °F 100% 30.15 in 3.7 mi NW 8.1 mph - N/A   Scattered Clouds
6:45 AM 51.8 °F 51.8 °F 100% 30.15 in 3.1 mi WNW 5.8 mph - N/A   Scattered Clouds
7:00 AM 52 °F 51 °F 96% 30.16 in 2 mi WNW 5.8 mph - -   Mist
7:15 AM 51.8 °F 51.8 °F 100% 30.15 in 2.2 mi WNW 6.9 mph - N/A   Scattered Clouds
7:45 AM 51.8 °F 51.8 °F 100% 30.15 in 1.9 mi WNW 5.8 mph - N/A   Scattered Clouds
8:15 AM 51.8 °F 51.8 °F 100% 30.15 in 1.9 mi NW 8.1 mph - N/A   Scattered Clouds
8:45 AM 53.6 °F 51.8 °F 94% 30.15 in 2.2 mi NW 9.2 mph - N/A   Scattered Clouds
9:15 AM 53.6 °F 51.8 °F 94% 30.15 in 2.2 mi NW 8.1 mph - N/A   Scattered Clouds
9:45 AM 53.6 °F 53.6 °F 100% 30.15 in 2.2 mi NW 9.2 mph - N/A   Scattered Clouds
10:00 AM 54 °F 53 °F 95% 30.16 in 2 mi NW 9.2 mph - -   Mist
10:15 AM 57.2 °F 55.4 °F 94% 30.15 in 2.5 mi NW 10.4 mph - N/A   Scattered Clouds
10:45 AM 57.2 °F 55.4 °F 94% 30.15 in 2.8 mi NW 9.2 mph - N/A   Partly Cloudy
11:15 AM 57.2 °F 55.4 °F 94% 30.15 in 2.8 mi NW 10.4 mph - N/A   Partly Cloudy
11:45 AM 59.0 °F 57.2 °F 94% 30.12 in 4.3 mi NW 8.1 mph - N/A   Partly Cloudy
12:15 PM 59.0 °F 57.2 °F 94% 30.12 in 4.3 mi North 3.5 mph - N/A   Partly Cloudy
12:45 PM 59.0 °F 59.0 °F 100% 30.12 in 5.0 mi North 3.5 mph - N/A   Scattered Clouds
1:00 PM 59 °F 58 °F 97% 30.13 in 5 mi North 3.5 mph - -   Mist
1:15 PM 59.0 °F 59.0 °F 100% 30.12 in 5.0 mi North 4.6 mph - N/A   Scattered Clouds
1:45 PM 59.0 °F 57.2 °F 94% 30.09 in 5.0 mi NE 4.6 mph - N/A   Scattered Clouds
2:15 PM 59.0 °F 59.0 °F 100% 30.09 in 6.2 mi ENE 4.6 mph - N/A   Scattered Clouds
2:45 PM 59.0 °F 59.0 °F 100% 30.09 in 6.2 mi ENE 5.8 mph - N/A   Scattered Clouds
3:15 PM 59.0 °F 59.0 °F 100% 30.09 in 6.2 mi ENE 4.6 mph - N/A   Scattered Clouds
3:45 PM 59.0 °F 57.2 °F 94% 30.09 in 6.2 mi ENE 4.6 mph - N/A   Scattered Clouds
4:00 PM 59 °F 58 °F 94% 30.10 in 6 mi ENE 4.6 mph - -   Mostly Cloudy
4:15 PM 59.0 °F 57.2 °F 94% 30.09 in 6.2 mi ENE 3.5 mph - N/A   Scattered Clouds
4:45 PM 57.2 °F 55.4 °F 94% 30.06 in 6.2 mi East 2.3 mph - N/A   Scattered Clouds
5:15 PM 57.2 °F 55.4 °F 94% 30.06 in 6.2 mi East 3.5 mph - N/A   Scattered Clouds
5:45 PM 55.4 °F 53.6 °F 94% 30.06 in 6.2 mi Calm Calm - N/A   Scattered Clouds
6:15 PM 55.4 °F 53.6 °F 94% 30.06 in 5.0 mi Calm Calm - N/A   Scattered Clouds
6:45 PM 55.4 °F 53.6 °F 94% 30.09 in 5.0 mi SE 1.2 mph - N/A   Scattered Clouds
7:00 PM 55 °F 53 °F 92% 30.10 in 5 mi SE 1.2 mph - -   Mist
7:15 PM 55.4 °F 53.6 °F 94% 30.09 in 5.0 mi Calm Calm - N/A   Scattered Clouds
7:45 PM 55.4 °F 53.6 °F 94% 30.09 in 5.0 mi Calm Calm - N/A   Scattered Clouds
8:15 PM 53.6 °F 51.8 °F 94% 30.09 in 5.0 mi Calm Calm - N/A   Scattered Clouds
8:45 PM 53.6 °F 51.8 °F 94% 30.09 in 5.0 mi Calm Calm - N/A   Scattered Clouds
9:15 PM 53.6 °F 51.8 °F 94% 30.09 in 5.0 mi Calm Calm - N/A   Scattered Clouds
9:45 PM 53.6 °F 51.8 °F 94% 30.06 in 5.0 mi East 5.8 mph - N/A   Scattered Clouds
10:00 PM 54 °F 52 °F 89% 30.09 in 5 mi East 5.8 mph - -   Mist
10:15 PM 53.6 °F 51.8 °F 94% 30.06 in 5.0 mi East 5.8 mph - N/A   Scattered Clouds
10:45 PM 55.4 °F 51.8 °F 88% 30.06 in 5.0 mi ESE 4.6 mph - N/A   Scattered Clouds
11:15 PM 55.4 °F 51.8 °F 88% 30.06 in 5.0 mi ESE 3.5 mph - N/A   Scattered Clouds
11:45 PM 51.8 °F 50.0 °F 94% 30.06 in 5.0 mi Calm Calm - N/A   Partly Cloudy